Weather Roundup
Issued by NWS Chicago, IL

Home | Current Version | Previous Version | Text Only | Print | Product List | Glossary Off
Versions: 1 2 3 4 5 6 7 8 9 10 11 12 13 14 15 16 17 18 19 20 21 22 23 24 25 26 27 28 29 30 31 32 33 34 35 36 37 38 39 40 41 42 43 44 45 46 47 48 49 50

000
NZUS59 KLOT 251606
HRRLOT

CHICAGO AREA WEATHER ROUNDUP
NATIONAL WEATHER SERVICE CHICAGO/ROMEOVILLE IL
1100 AM CDT FRI JUL 25 2014

NOTE: "FAIR" INDICATES FEW OR NO CLOUDS BELOW 12,000 FEET WITH NO
SIGNIFICANT WEATHER AND/OR OBSTRUCTIONS TO VISIBILITY.

* THESE STATIONS ARE NOT UNDER NWS QUALITY CONTROL. THEY ALSO MAY NOT
  REPORT WEATHER SUCH AS PRECIPITATION OR FOG.

ILZ005-006-012>014-019>023-251700-
NORTHEAST ILLINOIS

CITY           SKY/WX    TMP DP  RH WIND       PRES   REMARKS
OHARE          CLOUDY    70  54  56 S13       30.01F
MIDWAY         CLOUDY    72  57  59 S12       30.01F
AURORA         CLOUDY    66  58  75 S5        30.04R
LANSING*       PTSUNNY   71  56  59 S10       30.03F
JOLIET*        CLOUDY    67  54  61 S10       30.04R
WAUKEGAN       CLOUDY    71  56  58 S12       30.00F
DUPAGE AIRPORT CLOUDY    68  57  68 SW9       30.03R
WHEELING       CLOUDY    73  55  53 S14       30.01F
KANKAKEE*      CLOUDY    70  59  68 S9        30.06R
MORRIS*        LGT RAIN  67  59  75 S6        30.04R
LEWIS AIRPORT* LGT RAIN  68  56  63 SW9       30.03S
NORTHERLY IS   NOT AVBL
$$

WIZ051-052-058>065-066-070>072-251700-
SOUTHEAST WISCONSIN

CITY           SKY/WX    TMP DP  RH WIND       PRES   REMARKS
MILWAUKEE      PTSUNNY   72  55  55 S12       29.96F
KENOSHA*       CLOUDY    72  56  57 S15       30.00F
RACINE*        CLOUDY    73  56  54 S14G20    29.99F
BURLINGTON     CLOUDY    68  57  68 S9        29.97F
WEST BEND      PTSUNNY   68  54  60 S9        29.94F
$$

INZ001>003-010>013-019-020-251700-
NORTHWEST INDIANA

CITY           SKY/WX    TMP DP  RH WIND       PRES   REMARKS
GARY*          CLOUDY    72  55  56 S6        30.03F
MICHIGAN CITY* NOT AVBL
RENSSELAER*    NOT AVBL
VALPARAISO     MOSUNNY   71  55  56 S9        30.06S
$$

LMZ740>746-251700-
SOUTHERN LAKE MICHIGAN

STATION/POSITION TIME  SKY/WX   TEMP WIND        PRES    VSBY
                                AIR  DIR/SP/G
                 (UTC)          (F)  (DEG/KT/KT) (MB)    (MI)
HARRISON CRIB    1600            68  190/ 12/ 13   N/A
BURNHAM HARBOR   NOT AVBL
CALUMET HARBOR   1600            71  170/ 10/ 11 1015.3F
BURNS HARBOR     NOT AVBL
MICHIGAN CITY    1600            67  150/  7/  9   N/A
$$

ABBREVIATIONS USED IN REMARKS
   TC - TEMPERATURE IN CELSIUS
  WCI - WIND CHILL INDEX
   HX - HEAT INDEX
  VSB - VISIBILITY
$$


USA.gov is the U.S. government's official web portal to all federal, state and local government web resources and services.